Time,TemperatureF,DewpointF,PressureIn,WindDirection,WindDirectionDegrees,WindSpeedMPH,WindSpeedGustMPH,Humidity,HourlyPrecipIn,Conditions,Clouds,dailyrainin,SoftwareType,DateUTC
2013-02-14 00:02:00,30.0,26.0,30.07,North,354,0.0,0.0,85,0.00,,,0.02,,2013-02-14 06:02:00,
2013-02-14 00:11:00,30.0,26.0,30.07,NW,307,0.0,1.0,86,0.00,,,0.01,,2013-02-14 06:11:00,
2013-02-14 00:21:00,30.0,26.0,30.07,NW,307,0.0,1.0,86,0.00,,,0.01,,2013-02-14 06:21:00,
2013-02-14 00:31:00,29.0,26.0,30.06,NW,307,0.0,1.0,88,0.00,,,0.01,,2013-02-14 06:31:00,
2013-02-14 00:41:00,29.0,26.0,30.06,NW,307,0.0,1.0,88,0.00,,,0.01,,2013-02-14 06:41:00,
2013-02-14 00:52:00,30.0,27.0,30.06,SSE,163,0.0,1.0,88,0.00,,,0.01,,2013-02-14 06:52:00,
2013-02-14 01:01:00,33.0,29.0,30.06,SSE,163,0.0,0.0,86,0.00,,,0.01,,2013-02-14 07:01:00,
2013-02-14 01:11:00,34.0,29.0,30.06,SSE,164,0.0,1.0,82,0.00,,,0.01,,2013-02-14 07:11:00,
2013-02-14 01:21:00,34.0,29.0,30.06,SSE,164,0.0,1.0,82,0.00,,,0.01,,2013-02-14 07:21:00,
2013-02-14 01:31:00,33.0,28.0,30.06,SSE,163,0.0,0.0,83,0.00,,,0.01,,2013-02-14 07:31:00,
2013-02-14 01:41:00,33.0,28.0,30.06,SSE,163,0.0,0.0,83,0.00,,,0.01,,2013-02-14 07:41:00,
2013-02-14 01:52:00,32.0,28.0,30.06,SSE,163,0.0,0.0,84,0.00,,,0.01,,2013-02-14 07:52:00,
2013-02-14 02:01:00,33.0,29.0,30.06,SSE,163,0.0,0.0,84,0.00,,,0.01,,2013-02-14 08:01:00,
2013-02-14 02:11:00,33.0,29.0,30.06,SSE,163,0.0,0.0,84,0.00,,,0.01,,2013-02-14 08:11:00,
2013-02-14 02:21:00,34.0,29.0,30.06,ESE,120,0.0,1.0,83,0.00,,,0.01,,2013-02-14 08:21:00,
2013-02-14 02:32:00,35.0,29.0,30.06,ESE,117,0.0,0.0,80,0.00,,,0.01,,2013-02-14 08:32:00,
2013-02-14 02:43:00,35.0,29.0,30.06,ESE,117,0.0,0.0,80,0.00,,,0.01,,2013-02-14 08:43:00,
2013-02-14 02:52:00,35.0,29.0,30.06,ESE,117,0.0,1.0,77,0.00,,,0.01,,2013-02-14 08:52:00,
2013-02-14 03:01:00,36.0,29.0,30.06,ESE,117,0.0,1.0,75,0.00,,,0.01,,2013-02-14 09:01:00,
2013-02-14 03:11:00,36.0,29.0,30.06,ESE,117,0.0,1.0,75,0.00,,,0.01,,2013-02-14 09:11:00,
2013-02-14 03:21:00,36.0,29.0,30.06,ESE,103,0.0,1.0,74,0.00,,,0.01,,2013-02-14 09:21:00,
2013-02-14 03:31:00,35.0,28.0,30.06,ENE,72,0.0,1.0,75,0.00,,,0.01,,2013-02-14 09:31:00,
2013-02-14 03:42:00,35.0,28.0,30.06,ENE,72,0.0,1.0,75,0.00,,,0.01,,2013-02-14 09:42:00,
2013-02-14 03:52:00,35.0,28.0,30.05,North,357,0.0,1.0,75,0.00,,,0.01,,2013-02-14 09:52:00,
2013-02-14 04:02:00,35.0,28.0,30.05,NNE,27,0.0,1.0,75,0.00,,,0.01,,2013-02-14 10:02:00,
2013-02-14 04:11:00,34.0,27.0,30.05,NNE,27,0.0,0.0,76,0.00,,,0.01,,2013-02-14 10:11:00,
2013-02-14 04:21:00,34.0,27.0,30.05,NNE,27,0.0,0.0,76,0.00,,,0.01,,2013-02-14 10:21:00,
2013-02-14 04:31:00,34.0,28.0,30.05,NNE,27,0.0,1.0,78,0.00,,,0.01,,2013-02-14 10:31:00,
2013-02-14 04:42:00,34.0,28.0,30.05,NNE,27,0.0,1.0,78,0.00,,,0.01,,2013-02-14 10:42:00,
2013-02-14 04:52:00,32.0,26.0,30.05,NNW,338,0.0,0.0,78,0.00,,,0.01,,2013-02-14 10:52:00,
2013-02-14 05:01:00,32.0,27.0,30.05,NNW,338,0.0,0.0,82,0.00,,,0.01,,2013-02-14 11:01:00,
2013-02-14 05:11:00,32.0,27.0,30.05,NNW,338,0.0,0.0,82,0.00,,,0.01,,2013-02-14 11:11:00,
2013-02-14 05:21:00,32.0,26.0,30.06,NNW,338,0.0,0.0,79,0.00,,,0.01,,2013-02-14 11:21:00,
2013-02-14 05:32:00,30.0,25.0,30.06,NNW,339,0.0,1.0,83,0.00,,,0.01,,2013-02-14 11:32:00,
2013-02-14 05:42:00,30.0,25.0,30.06,NNW,339,0.0,1.0,83,0.00,,,0.01,,2013-02-14 11:42:00,
2013-02-14 05:52:00,29.0,25.0,30.06,NNW,339,0.0,0.0,85,0.00,,,0.01,,2013-02-14 11:52:00,
2013-02-14 06:02:00,28.0,25.0,30.06,NNW,339,0.0,0.0,87,0.00,,,0.01,,2013-02-14 12:02:00,
2013-02-14 06:11:00,28.0,25.0,30.06,NNW,339,0.0,0.0,87,0.00,,,0.01,,2013-02-14 12:11:00,
2013-02-14 06:22:00,28.0,25.0,30.06,NNW,339,0.0,0.0,88,0.00,,,0.01,,2013-02-14 12:22:00,
2013-02-14 06:32:00,28.0,25.0,30.07,NNW,339,0.0,0.0,87,0.00,,,0.01,,2013-02-14 12:32:00,
2013-02-14 06:42:00,28.0,25.0,30.07,NNW,339,0.0,0.0,87,0.00,,,0.01,,2013-02-14 12:42:00,
2013-02-14 06:53:00,27.0,24.0,30.07,NNW,339,0.0,0.0,87,0.00,,,0.01,,2013-02-14 12:53:00,
2013-02-14 07:01:00,27.0,24.0,30.08,NNW,339,0.0,0.0,89,0.00,,,0.01,,2013-02-14 13:01:00,
2013-02-14 07:11:00,27.0,24.0,30.08,NNW,339,0.0,0.0,89,0.00,,,0.01,,2013-02-14 13:11:00,
2013-02-14 07:21:00,29.0,26.0,30.08,North,6,0.0,1.0,90,0.00,,,0.01,,2013-02-14 13:21:00,
2013-02-14 07:31:00,30.0,26.0,30.09,North,6,0.0,0.0,84,0.00,,,0.01,,2013-02-14 13:31:00,
2013-02-14 07:41:00,30.0,26.0,30.09,North,6,0.0,0.0,84,0.00,,,0.01,,2013-02-14 13:41:00,
2013-02-14 07:52:00,28.0,24.0,30.11,North,6,0.0,0.0,86,0.00,,,0.01,,2013-02-14 13:52:00,
2013-02-14 08:01:00,31.0,27.0,30.11,East,79,0.0,3.0,84,0.00,,,0.01,,2013-02-14 14:01:00,
2013-02-14 08:11:00,31.0,27.0,30.11,East,79,0.0,3.0,84,0.00,,,0.01,,2013-02-14 14:11:00,
2013-02-14 08:21:00,32.0,27.0,30.11,North,4,0.0,1.0,82,0.00,,,0.01,,2013-02-14 14:21:00,
2013-02-14 08:31:00,34.0,29.0,30.11,ENE,77,0.0,1.0,82,0.00,,,0.01,,2013-02-14 14:31:00,
2013-02-14 08:41:00,34.0,29.0,30.11,ENE,77,0.0,1.0,82,0.00,,,0.01,,2013-02-14 14:41:00,
2013-02-14 08:52:00,36.0,30.0,30.12,ENE,75,0.0,1.0,78,0.00,,,0.01,,2013-02-14 14:52:00,
2013-02-14 09:01:00,38.0,31.0,30.12,ENE,73,0.0,1.0,76,0.00,,,0.01,,2013-02-14 15:01:00,
2013-02-14 09:11:00,38.0,31.0,30.12,ENE,73,0.0,1.0,76,0.00,,,0.01,,2013-02-14 15:11:00,
2013-02-14 09:21:00,41.0,33.0,30.12,ENE,72,0.0,0.0,74,0.00,,,0.01,,2013-02-14 15:21:00,
2013-02-14 09:31:00,45.0,35.0,30.12,East,100,0.0,2.0,68,0.00,,,0.01,,2013-02-14 15:31:00,
2013-02-14 09:52:00,48.0,35.0,30.13,North,4,1.0,3.0,60,0.00,,,0.01,,2013-02-14 15:52:00,
2013-02-14 10:01:00,48.0,35.0,30.12,ESE,108,2.0,8.0,61,0.00,,,0.01,,2013-02-14 16:01:00,
2013-02-14 10:11:00,49.0,32.0,30.13,ESE,112,4.0,8.0,52,0.00,,,0.01,,2013-02-14 16:11:00,
2013-02-14 10:21:00,49.0,32.0,30.13,ESE,112,4.0,8.0,52,0.00,,,0.01,,2013-02-14 16:21:00,
2013-02-14 10:32:00,49.0,33.0,30.12,NE,53,2.0,8.0,53,0.00,,,0.01,,2013-02-14 16:32:00,
2013-02-14 10:41:00,49.0,33.0,30.12,NE,53,2.0,8.0,53,0.00,,,0.01,,2013-02-14 16:41:00,
2013-02-14 10:52:00,49.0,33.0,30.12,NE,46,1.0,5.0,54,0.00,,,0.01,,2013-02-14 16:52:00,
2013-02-14 11:01:00,50.0,32.0,30.12,ESE,115,1.0,5.0,49,0.00,,,0.01,,2013-02-14 17:01:00,
2013-02-14 11:11:00,51.0,34.0,30.12,SSE,148,1.0,5.0,52,0.00,,,0.00,,2013-02-14 17:11:00,
2013-02-14 11:21:00,51.0,34.0,30.12,SSE,148,1.0,5.0,52,0.00,,,0.00,,2013-02-14 17:21:00,
2013-02-14 11:31:00,52.0,34.0,30.12,NE,42,1.0,4.0,50,0.00,,,0.00,,2013-02-14 17:31:00,
2013-02-14 11:41:00,52.0,34.0,30.12,NE,42,1.0,4.0,50,0.00,,,0.00,,2013-02-14 17:41:00,
2013-02-14 11:52:00,53.0,33.0,30.12,East,97,2.0,4.0,46,0.00,,,0.00,,2013-02-14 17:52:00,
2013-02-14 12:01:00,54.0,34.0,30.12,NNE,13,0.0,4.0,47,0.00,,,0.00,,2013-02-14 18:01:00,
2013-02-14 12:11:00,54.0,34.0,30.12,NNE,13,0.0,4.0,47,0.00,,,0.00,,2013-02-14 18:11:00,
2013-02-14 12:23:00,56.0,35.0,30.11,NNE,21,0.0,3.0,45,0.00,,,0.00,,2013-02-14 18:23:00,
2013-02-14 12:32:00,57.0,34.0,30.11,ESE,105,2.0,4.0,42,0.00,,,0.00,,2013-02-14 18:32:00,
2013-02-14 12:41:00,57.0,34.0,30.11,ESE,105,2.0,4.0,42,0.00,,,0.00,,2013-02-14 18:41:00,
2013-02-14 12:52:00,58.0,35.0,30.10,SE,129,3.0,6.0,42,0.00,,,0.00,,2013-02-14 18:52:00,
2013-02-14 13:02:00,58.0,34.0,30.09,SE,129,2.0,5.0,41,0.00,,,0.00,,2013-02-14 19:02:00,
2013-02-14 13:11:00,58.0,34.0,30.09,SE,129,2.0,5.0,41,0.00,,,0.00,,2013-02-14 19:11:00,
2013-02-14 13:21:00,59.0,35.0,30.09,SSE,159,2.0,5.0,41,0.00,,,0.00,,2013-02-14 19:21:00,
2013-02-14 13:31:00,60.0,34.0,30.08,SSW,195,1.0,4.0,37,0.00,,,0.00,,2013-02-14 19:31:00,
2013-02-14 13:41:00,60.0,34.0,30.08,SSW,195,1.0,4.0,37,0.00,,,0.00,,2013-02-14 19:41:00,
2013-02-14 13:52:00,61.0,36.0,30.07,South,186,1.0,-999.0,40,-99.99,,,-99.99,,2013-02-14 19:52:00,
2013-02-14 14:01:00,62.0,35.0,30.06,SW,214,0.0,5.0,36,0.00,,,0.00,,2013-02-14 20:01:00,
2013-02-14 14:11:00,62.0,33.0,30.06,NE,56,0.0,3.0,33,0.00,,,0.00,,2013-02-14 20:11:00,
2013-02-14 14:21:00,62.0,33.0,30.06,NE,56,0.0,3.0,33,0.00,,,0.00,,2013-02-14 20:21:00,
2013-02-14 14:31:00,64.0,34.0,30.05,SE,131,1.0,4.0,33,0.00,,,0.00,,2013-02-14 20:31:00,
2013-02-14 14:41:00,64.0,34.0,30.05,SE,131,1.0,4.0,33,0.00,,,0.00,,2013-02-14 20:41:00,
2013-02-14 14:52:00,63.0,33.0,30.05,NNE,25,0.0,5.0,32,0.00,,,0.00,,2013-02-14 20:52:00,
2013-02-14 15:02:00,63.0,36.0,30.05,East,91,1.0,5.0,36,0.00,,,0.00,,2013-02-14 21:02:00,
2013-02-14 15:11:00,63.0,36.0,30.05,East,91,1.0,5.0,36,0.00,,,0.00,,2013-02-14 21:11:00,
2013-02-14 15:21:00,63.0,32.0,30.05,ENE,71,2.0,6.0,31,0.00,,,0.00,,2013-02-14 21:21:00,
2013-02-14 15:31:00,63.0,32.0,30.04,ESE,103,2.0,5.0,31,0.00,,,0.00,,2013-02-14 21:31:00,
2013-02-14 15:42:00,63.0,32.0,30.04,ESE,103,2.0,5.0,31,0.00,,,0.00,,2013-02-14 21:42:00,
2013-02-14 15:52:00,64.0,34.0,30.05,ENE,78,2.0,6.0,32,0.00,,,0.00,,2013-02-14 21:52:00,
2013-02-14 16:02:00,63.0,33.0,30.05,ESE,120,3.0,7.0,33,0.00,,,0.00,,2013-02-14 22:02:00,
2013-02-14 16:11:00,62.0,35.0,30.06,ENE,61,3.0,9.0,36,0.00,,,0.00,,2013-02-14 22:11:00,
2013-02-14 16:21:00,62.0,35.0,30.06,ENE,61,3.0,9.0,36,0.00,,,0.00,,2013-02-14 22:21:00,
2013-02-14 16:31:00,62.0,35.0,30.06,ENE,61,3.0,9.0,36,0.00,,,0.00,,2013-02-14 22:31:00,
2013-02-14 16:42:00,62.0,35.0,30.06,ENE,61,3.0,9.0,36,0.00,,,0.00,,2013-02-14 22:42:00,
2013-02-14 16:52:00,61.0,35.0,30.06,ESE,103,3.0,8.0,38,0.00,,,0.00,,2013-02-14 22:52:00,
2013-02-14 17:01:00,60.0,34.0,30.06,ENE,75,4.0,8.0,38,0.00,,,0.00,,2013-02-14 23:01:00,
2013-02-14 17:11:00,60.0,34.0,30.06,ENE,75,4.0,8.0,38,0.00,,,0.00,,2013-02-14 23:11:00,
2013-02-14 17:21:00,59.0,35.0,30.07,East,84,2.0,5.0,41,0.00,,,0.00,,2013-02-14 23:21:00,
2013-02-14 17:31:00,58.0,36.0,30.07,NE,56,3.0,7.0,44,0.00,,,0.00,,2013-02-14 23:31:00,
2013-02-14 17:41:00,58.0,36.0,30.07,NE,56,3.0,7.0,44,0.00,,,0.00,,2013-02-14 23:41:00,
2013-02-14 17:52:00,57.0,35.0,30.08,NE,54,2.0,11.0,44,0.00,,,0.00,,2013-02-14 23:52:00,
2013-02-14 18:01:00,55.0,35.0,30.08,East,100,3.0,6.0,46,0.00,,,0.00,,2013-02-15 00:01:00,
2013-02-14 18:11:00,55.0,35.0,30.08,East,100,3.0,6.0,46,0.00,,,0.00,,2013-02-15 00:11:00,
2013-02-14 18:21:00,54.0,35.0,30.09,ENE,63,2.0,8.0,48,0.00,,,0.00,,2013-02-15 00:21:00,
2013-02-14 18:31:00,53.0,36.0,30.09,NE,53,2.0,7.0,53,0.00,,,0.00,,2013-02-15 00:31:00,
2013-02-14 18:42:00,53.0,36.0,30.09,NE,53,2.0,7.0,53,0.00,,,0.00,,2013-02-15 00:42:00,
2013-02-14 18:52:00,52.0,36.0,30.10,East,94,3.0,8.0,55,0.00,,,0.00,,2013-02-15 00:52:00,
2013-02-14 19:02:00,51.0,35.0,30.11,East,85,3.0,9.0,55,0.00,,,0.00,,2013-02-15 01:02:00,
2013-02-14 19:11:00,51.0,35.0,30.11,East,85,3.0,9.0,55,0.00,,,0.00,,2013-02-15 01:11:00,
2013-02-14 19:21:00,51.0,36.0,30.12,SE,142,4.0,9.0,57,0.00,,,0.00,,2013-02-15 01:21:00,
2013-02-14 19:31:00,50.0,37.0,30.14,East,87,4.0,10.0,60,0.00,,,0.00,,2013-02-15 01:31:00,
2013-02-14 19:41:00,50.0,37.0,30.14,East,87,4.0,10.0,60,0.00,,,0.00,,2013-02-15 01:41:00,
2013-02-14 19:52:00,49.0,35.0,30.14,ESE,115,3.0,13.0,59,0.00,,,0.00,,2013-02-15 01:52:00,
2013-02-14 20:01:00,49.0,36.0,30.15,ENE,69,3.0,13.0,60,0.00,,,0.00,,2013-02-15 02:01:00,
2013-02-14 20:11:00,49.0,36.0,30.15,ENE,69,3.0,13.0,60,0.00,,,0.00,,2013-02-15 02:11:00,
2013-02-14 20:21:00,48.0,35.0,30.16,ESE,120,4.0,9.0,60,0.00,,,0.00,,2013-02-15 02:21:00,
2013-02-14 20:31:00,48.0,35.0,30.17,East,98,5.0,12.0,60,0.00,,,0.00,,2013-02-15 02:31:00,
2013-02-14 20:41:00,48.0,35.0,30.17,East,98,5.0,12.0,60,0.00,,,0.00,,2013-02-15 02:41:00,
2013-02-14 20:52:00,48.0,35.0,30.17,East,98,5.0,12.0,60,0.00,,,0.00,,2013-02-15 02:52:00,
2013-02-14 21:02:00,48.0,35.0,30.18,ESE,103,5.0,12.0,61,0.00,,,0.00,,2013-02-15 03:02:00,
2013-02-14 21:11:00,48.0,35.0,30.18,ESE,103,5.0,12.0,61,0.00,,,0.00,,2013-02-15 03:11:00,
2013-02-14 21:22:00,48.0,34.0,30.18,East,90,7.0,15.0,59,0.00,,,0.00,,2013-02-15 03:22:00,
2013-02-14 21:32:00,47.0,33.0,30.19,ESE,123,6.0,11.0,59,0.00,,,0.00,,2013-02-15 03:32:00,
2013-02-14 21:42:00,47.0,33.0,30.19,ESE,123,6.0,11.0,59,0.00,,,0.00,,2013-02-15 03:42:00,
2013-02-14 21:52:00,47.0,33.0,30.19,East,97,5.0,13.0,59,0.00,,,0.00,,2013-02-15 03:52:00,
2013-02-14 22:01:00,47.0,33.0,30.20,ESE,111,6.0,12.0,59,0.00,,,0.00,,2013-02-15 04:01:00,
2013-02-14 22:11:00,47.0,33.0,30.20,ESE,111,6.0,12.0,59,0.00,,,0.00,,2013-02-15 04:11:00,
2013-02-14 22:21:00,47.0,33.0,30.20,NNE,22,7.0,14.0,59,0.00,,,0.00,,2013-02-15 04:21:00,
2013-02-14 22:32:00,46.0,33.0,30.21,NNE,15,6.0,16.0,61,0.00,,,0.00,,2013-02-15 04:32:00,
2013-02-14 22:42:00,46.0,33.0,30.21,NNE,15,6.0,16.0,61,0.00,,,0.00,,2013-02-15 04:42:00,
2013-02-14 22:52:00,45.0,34.0,30.22,ESE,120,9.0,16.0,66,0.00,,,0.00,,2013-02-15 04:52:00,
2013-02-14 23:02:00,44.0,35.0,30.22,East,97,6.0,18.0,70,0.00,,,0.00,,2013-02-15 05:02:00,
2013-02-14 23:12:00,44.0,35.0,30.22,East,97,6.0,18.0,70,0.00,,,0.00,,2013-02-15 05:12:00,
2013-02-14 23:22:00,43.0,35.0,30.23,SE,125,5.0,14.0,72,0.00,,,0.00,,2013-02-15 05:22:00,
2013-02-14 23:32:00,43.0,35.0,30.23,SE,125,5.0,14.0,72,0.00,,,0.00,,2013-02-15 05:32:00,
2013-02-14 23:41:00,43.0,35.0,30.23,SE,125,5.0,14.0,72,0.00,,,0.00,,2013-02-15 05:41:00,
2013-02-14 23:52:00,42.0,35.0,30.24,SE,128,7.0,14.0,77,0.00,,,0.00,,2013-02-15 05:52:00,